Location: ??????????
(48.5701°N, 37.7703°E)
Time: 19:54:57
(UTC+00:00)

Meteor 1-28 Rocket - Pass Details

Date: 14 July 2020
Orbit: 505 x 522 km, 97.3° (Epoch: 11 August)

Event Time Altitude Azimuth Distance (km) Brightness Sun altitude
Exits shadow 00:56:17 - 192° (SSW) 2,228 5.9 -6.7°
Reaches altitude 10° 00:57:36 10° 199° (SSW) 1,720 5.3 -6.5°
Maximum altitude 01:00:57 32° 264° (W) 889 4.0 -6.1°
Drops below altitude 10° 01:04:22 10° 329° (NNW) 1,742 6.0 -5.7°
Sets 01:06:38 0° 339° (NNW) 2,636 7.1 -5.4°
